GFSCGP_850_thetae_096.txt.gz
Theta_e
321 321 321 322 322 321 321 320 319 317 317 317 316 317 319 322 325 326 329 333 334 337 340 342 341 339 335 336 339 339 340 337 337 337 335 333 331 328 327 324 316 311 307 307
322 322 322 320 321 322 321 321 319 316 316 316 315 315 317 324 327 327 334 334 334 334 338 341 341 338 333 333 340 340 338 337 334 336 335 327 330 331 328 322 315 310 308 307
322 322 321 322 322 320 320 320 319 317 316 316 316 315 316 320 325 330 333 333 335 333 334 339 338 337 340 342 341 338 333 333 334 335 334 332 328 326 322 319 313 310 308 307
322 321 321 322 321 321 322 320 318 318 319 316 315 317 318 322 323 329 332 333 334 334 333 338 341 341 342 341 338 333 334 335 334 335 334 330 327 325 322 319 313 309 308 308
322 321 322 323 322 321 322 320 320 321 318 316 317 320 322 323 324 330 329 332 333 333 333 336 340 340 340 337 335 338 337 335 334 333 332 327 324 321 317 313 310 308 307 307
320 321 321 321 321 322 321 321 321 321 321 321 318 325 327 325 324 330 330 331 332 332 331 333 335 336 335 335 337 339 339 336 335 332 325 323 320 314 313 311 310 309 310 309
320 321 321 321 323 322 322 322 322 323 325 322 325 324 323 323 325 325 328 329 331 329 328 329 330 335 337 339 340 340 339 336 332 325 324 322 315 313 312 311 311 311 311 311
318 323 320 320 321 323 324 322 323 323 330 329 324 328 328 326 323 324 326 330 332 331 328 327 327 329 333 336 337 337 335 333 330 324 320 317 314 312 312 312 312 312 312 312
319 322 319 321 320 322 322 325 320 321 322 328 324 325 325 324 322 321 322 321 321 321 321 323 325 326 326 327 329 332 331 330 325 319 316 315 313 312 312 312 312 312 312 311
317 320 320 321 322 321 322 322 325 323 329 327 324 317 318 320 320 320 318 318 318 318 318 321 323 324 327 328 329 329 326 319 316 314 314 313 311 311 311 310 309 309 309 308
316 317 317 319 321 321 322 321 324 324 326 331 323 318 316 318 319 318 316 316 316 316 317 319 322 324 324 323 321 319 317 316 314 311 311 311 311 310 309 308 307 306 305 304
315 314 316 318 319 320 319 319 322 326 326 325 325 318 315 318 317 316 316 316 315 315 315 316 316 315 315 316 315 314 311 310 310 311 310 309 308 307 306 305 304 304 303 302
314 314 316 317 318 317 316 316 321 322 325 326 328 327 316 317 316 316 314 314 314 314 314 313 312 311 311 310 309 309 309 309 308 308 307 307 306 305 304 304 304 303 301 300
314 315 315 316 316 315 314 315 315 322 326 323 323 318 314 315 317 315 314 313 313 313 313 313 312 311 310 309 309 308 308 307 306 306 306 305 304 304 304 302 301 299 299 299
314 314 314 315 315 315 314 315 315 314 314 314 314 314 313 314 315 316 314 313 312 312 312 311 310 309 309 308 307 307 306 306 305 305 304 304 303 302 300 299 299 299 299 298
312 314 314 315 316 315 316 316 316 316 315 314 315 314 313 315 317 315 314 313 312 312 311 310 309 309 308 307 306 305 304 304 304 303 303 303 300 300 299 299 298 299 299 298
313 315 315 317 318 317 318 315 316 316 312 311 315 314 313 313 314 314 314 314 313 312 311 310 309 308 307 306 305 304 304 303 303 302 302 301 300 299 299 299 299 299 299 299
312 313 315 316 317 321 315 313 313 313 312 313 312 314 313 311 310 310 313 314 313 312 310 309 308 307 306 305 305 304 303 302 301 301 300 300 300 300 299 299 299 298 298 298
312 313 315 319 317 317 314 313 312 312 312 313 314 313 312 311 309 308 311 313 313 311 310 308 307 305 304 304 303 302 301 301 300 300 300 300 300 299 299 298 298 298 298 298
313 312 314 316 321 323 315 312 310 309 311 313 313 313 312 312 313 307 308 310 310 309 307 306 305 304 303 302 301 301 301 300 300 300 300 299 299 298 298 298 298 297 297 297
314 314 314 316 320 319 313 312 311 314 312 312 313 312 312 311 310 307 307 307 306 306 305 304 303 303 302 301 301 301 300 300 300 299 298 298 299 298 298 297 297 296 296 296
316 318 317 317 319 320 313 312 314 311 312 311 312 312 311 307 307 306 306 305 305 304 303 303 302 301 301 299 300 300 300 300 298 298 298 299 298 298 297 297 296 296 296 295
315 315 315 316 317 314 313 312 311 311 310 311 311 311 311 308 307 306 305 304 303 303 302 302 301 300 300 299 297 299 300 299 298 298 298 298 298 297 296 296 295 295 294 293
313 313 314 315 316 315 312 311 311 310 310 310 310 310 310 308 307 306 305 304 303 302 302 301 301 300 300 299 298 299 298 298 298 298 298 297 297 296 295 295 293 292 292 291
310 312 313 313 314 314 313 312 311 311 311 310 309 309 310 309 307 305 304 303 302 302 301 301 300 300 300 299 299 299 297 297 297 297 297 296 295 295 293 292 291 291 291 291
308 309 309 311 313 313 314 312 312 310 310 310 309 308 309 308 306 305 304 303 302 301 301 300 300 300 299 298 299 298 297 297 296 295 295 294 294 292 292 291 291 290 291 290

GFSCGP_850_thetae_099.txt.gz
Theta_e
318 319 319 319 318 319 320 320 320 319 318 315 314 313 313 314 316 320 321 326 333 335 335 341 341 339 337 337 337 337 337 335 337 336 336 336 335 333 331 326 323 314 310 307
317 318 320 320 321 321 319 320 318 317 316 314 313 313 313 312 315 318 321 323 325 333 335 340 340 339 337 337 334 336 338 336 337 337 334 334 333 331 329 326 322 316 310 307
320 319 321 321 321 321 320 320 320 319 317 316 313 313 312 313 314 316 324 326 332 334 341 340 340 340 338 334 337 339 338 337 336 335 334 334 329 329 329 325 321 318 311 307
319 320 321 321 322 321 322 320 321 320 319 318 314 314 312 312 314 316 324 328 333 333 336 337 340 340 336 337 338 339 334 330 336 332 333 334 331 330 330 328 321 317 311 308
316 320 321 323 321 320 322 321 320 321 320 318 317 314 312 314 318 319 320 330 332 333 331 328 334 340 338 335 335 334 334 339 333 334 334 333 332 331 328 322 318 313 309 308
314 319 321 321 320 321 321 322 321 319 320 319 317 317 316 322 322 321 322 329 332 332 332 333 339 339 337 337 339 339 338 335 334 332 333 331 329 327 322 318 314 310 309 308
314 320 319 319 320 321 323 321 321 318 321 322 322 321 318 322 323 323 323 325 331 332 334 337 338 339 338 337 337 336 336 335 333 333 332 327 325 319 317 313 311 309 309 309
314 318 318 317 319 321 322 321 322 320 325 326 319 322 325 321 322 323 325 326 328 328 329 333 335 336 336 336 336 336 335 334 334 332 326 322 318 317 314 311 311 310 310 311
314 319 317 316 320 320 321 326 318 318 319 324 322 322 323 322 323 321 322 320 321 325 327 328 330 335 336 338 336 336 335 333 329 325 321 319 315 313 312 312 312 312 312 312
313 316 314 318 319 320 321 321 325 321 328 321 319 317 319 324 323 319 318 321 322 322 324 324 325 326 327 329 331 333 332 330 326 322 319 313 312 312 312 312 312 312 312 312
311 311 311 314 318 319 318 319 324 324 323 328 322 317 317 316 316 315 313 316 320 319 322 324 325 326 326 329 328 328 327 325 319 317 316 314 312 312 312 311 311 311 310 309
313 311 311 313 314 317 316 316 322 324 326 324 323 318 312 314 313 314 314 315 316 317 319 322 325 326 325 323 323 320 318 316 314 313 311 311 311 310 310 308 308 306 305 304
311 311 312 312 311 312 312 313 314 321 322 322 319 320 313 313 312 313 313 314 314 314 314 314 315 316 316 316 315 314 312 311 310 310 310 309 307 306 306 305 304 304 303 301
312 312 312 313 312 311 312 312 312 317 313 315 320 313 311 314 313 312 313 313 313 313 312 311 311 310 310 310 310 310 309 309 308 308 307 306 305 305 304 304 303 302 300 299
309 310 311 311 312 312 312 314 315 314 312 312 311 312 312 312 313 312 312 313 313 312 311 311 310 309 309 308 308 308 307 306 306 306 305 304 304 304 303 301 299 299 299 298
307 311 311 312 314 314 313 313 314 314 311 311 313 312 310 313 313 312 312 312 312 311 310 310 309 308 308 307 307 306 306 305 305 304 304 303 303 301 299 299 299 298 298 298
306 309 310 312 312 314 315 313 313 310 310 309 311 313 311 309 310 310 312 312 311 311 310 309 308 307 307 306 306 305 304 303 303 303 302 301 300 299 299 299 298 298 298 298
306 309 310 311 312 317 313 312 311 310 312 311 311 311 309 308 308 310 312 312 311 311 309 308 307 306 306 305 304 303 303 302 302 301 300 300 300 299 299 299 298 298 298 298
306 308 310 311 313 314 312 311 310 311 312 311 311 310 309 309 310 309 312 313 311 310 309 308 307 306 305 304 303 303 302 301 300 300 300 300 300 299 299 298 298 298 298 297
308 307 309 310 314 318 313 310 309 308 308 311 312 310 310 310 310 305 309 311 310 309 308 307 306 305 304 303 303 302 301 300 300 300 300 299 298 298 298 298 298 297 296 296
310 310 309 309 309 315 312 311 310 311 310 311 312 311 311 308 309 307 308 308 308 307 306 305 305 304 302 301 301 301 300 300 300 300 297 296 298 298 298 298 297 296 296 296
312 309 310 311 312 315 312 311 312 310 310 311 311 311 309 307 307 307 306 306 306 305 304 304 303 302 301 300 300 300 300 300 299 296 297 298 298 298 297 296 296 295 295 295
311 310 312 312 313 312 312 312 312 310 310 311 311 311 310 307 306 306 305 305 304 303 303 303 302 300 299 298 299 299 299 298 297 297 298 298 297 297 296 296 295 294 293 292
308 311 311 311 311 311 311 310 310 310 310 310 310 310 310 308 306 305 305 304 303 302 302 301 300 300 299 298 297 298 297 297 297 298 298 297 297 296 295 294 292 291 291 291
307 306 309 309 309 312 311 311 311 311 311 310 309 309 310 308 306 305 304 303 302 302 301 300 300 300 299 298 298 298 297 296 296 296 296 295 295 294 293 292 291 291 290 291
306 305 306 309 311 308 310 311 311 311 310 310 309 309 309 309 307 305 304 303 302 301 300 300 300 299 299 298 298 297 296 295 295 294 294 293 293 291 290 290 289 289 289 289

GFSCGP_850_thetae_102.txt.gz
Theta_e
317 317 318 317 317 317 318 318 318 318 318 316 316 315 312 313 313 313 314 316 320 328 334 339 338 339 336 337 336 336 337 337 337 337 335 334 334 334 333 331 325 320 312 309
316 318 317 319 320 320 319 319 319 317 316 317 316 315 312 311 312 313 314 315 318 321 330 337 339 339 337 336 336 336 336 335 337 337 336 336 335 334 332 330 325 317 312 309
318 318 319 320 320 321 320 320 319 320 319 316 314 316 313 311 312 313 314 315 318 323 330 334 338 339 336 337 337 336 337 334 337 336 335 335 335 334 331 330 322 317 313 309
316 319 320 321 322 321 321 320 321 322 322 321 314 318 314 311 310 311 318 321 324 325 332 335 338 337 336 336 337 337 337 337 337 334 336 334 334 333 331 329 326 317 314 309
312 315 319 322 321 320 321 321 322 321 321 319 319 317 313 313 316 319 317 322 323 334 336 338 337 337 336 332 338 337 338 336 336 335 333 334 333 332 330 329 326 317 312 309
312 315 320 319 319 319 320 322 320 319 319 320 320 316 314 320 320 320 321 322 324 330 338 339 339 337 332 334 337 337 334 336 336 332 333 333 332 328 329 327 323 317 312 310
311 313 317 318 318 318 321 321 321 317 322 323 319 320 315 320 320 320 321 323 326 329 330 333 334 334 334 337 336 336 336 332 331 333 332 332 331 329 329 326 323 314 311 309
313 314 317 315 316 319 321 322 323 321 324 322 320 322 323 317 319 321 320 323 327 332 333 333 333 335 336 336 336 336 335 329 330 334 331 329 331 325 322 322 317 312 310 309
313 314 314 314 315 319 321 323 318 319 319 319 322 322 319 322 321 321 321 321 323 329 331 333 335 336 334 334 334 335 334 334 333 332 330 330 323 319 316 313 312 310 310 310
312 313 313 313 316 318 320 318 324 322 324 318 320 318 319 325 322 321 322 323 321 324 325 326 328 331 333 335 334 335 334 331 330 326 323 320 317 315 313 312 311 311 311 311
310 310 310 311 313 316 313 316 323 320 323 325 319 317 315 315 316 315 318 322 321 320 324 324 325 326 327 329 330 331 328 326 322 320 317 315 313 312 312 312 312 312 311 311
312 309 310 311 311 311 311 314 320 321 323 323 321 318 311 312 312 313 313 314 315 318 324 326 326 327 327 325 325 325 324 323 320 318 315 312 312 312 312 311 311 310 309 308
311 309 310 310 309 309 311 310 315 319 318 320 317 319 312 311 311 313 313 314 315 317 318 319 319 319 319 319 318 318 317 316 315 314 313 311 311 310 309 308 307 305 304 303
311 310 310 310 310 310 311 312 311 316 309 310 315 313 311 312 311 311 313 313 313 312 312 312 312 312 313 313 312 312 311 310 310 310 310 309 307 306 305 304 304 303 302 300
307 308 309 309 310 310 311 311 312 312 311 309 310 312 310 312 311 311 313 312 312 310 310 309 309 309 309 309 309 309 309 308 308 307 307 306 305 304 304 303 301 300 299 298
302 306 308 310 312 312 313 312 312 310 308 310 311 312 310 311 311 311 312 312 311 310 309 309 309 309 308 308 307 307 306 306 306 305 304 304 303 302 300 299 299 298 298 298
303 306 309 310 310 312 314 312 311 308 310 309 311 312 309 308 308 310 311 311 310 309 309 308 308 308 307 306 306 306 305 304 303 303 303 302 301 300 299 299 298 298 298 297
303 306 308 309 310 316 312 310 309 311 311 310 310 310 308 308 309 310 311 311 310 309 308 307 307 306 306 305 304 304 303 303 302 302 301 300 300 299 299 298 298 297 297 297
302 305 308 309 312 312 312 310 309 309 310 311 310 308 307 308 309 310 312 311 311 309 308 308 307 306 305 305 304 303 302 302 301 300 300 299 299 299 299 298 297 297 297 296
304 305 308 308 312 316 313 309 309 307 307 309 310 308 308 308 309 305 310 311 310 309 308 307 306 305 304 303 303 302 301 300 300 300 299 299 299 296 296 297 297 297 296 296
309 308 308 308 308 311 310 310 309 308 307 310 311 310 309 307 309 309 310 310 309 308 306 305 305 304 304 303 302 301 300 299 299 299 298 296 296 297 297 297 297 296 296 295
310 308 308 308 310 314 311 310 310 309 310 310 311 311 310 308 308 308 308 308 307 306 305 305 304 303 302 301 300 299 299 299 299 297 296 297 298 298 297 297 296 295 294 294
311 309 310 310 311 311 312 311 312 310 311 311 311 311 309 307 307 307 306 306 306 305 304 303 303 302 300 299 299 298 298 298 297 296 296 297 297 297 296 296 295 293 292 291
307 308 309 310 311 311 311 311 310 309 310 310 310 310 310 308 306 306 305 305 304 304 303 302 302 300 298 298 297 297 296 296 296 296 297 297 296 296 295 294 292 291 291 290
305 306 306 306 307 310 312 310 310 310 310 310 310 309 309 308 306 306 305 304 303 303 302 302 300 300 299 298 297 297 297 296 296 296 295 295 294 293 292 290 290 290 289 289
305 305 306 306 308 310 309 311 310 310 311 310 310 309 309 309 307 306 305 303 303 302 302 300 300 300 299 298 297 297 296 295 294 294 293 293 293 291 289 288 288 288 289 289

GFSCGP_850_thetae_105.txt.gz
Theta_e
316 316 317 316 316 316 317 318 318 317 316 317 316 315 313 313 313 311 313 314 314 316 327 337 337 336 335 334 335 334 335 336 336 336 334 334 331 327 324 322 322 325 314 311
314 316 316 317 319 319 319 319 319 317 316 317 316 316 313 311 311 314 313 313 314 314 316 332 337 337 337 335 335 335 335 335 335 338 335 336 330 324 324 322 326 323 317 312
317 316 317 320 320 320 320 319 319 319 319 317 315 316 314 312 311 312 312 314 320 319 316 320 336 337 337 336 335 334 336 335 336 337 337 336 327 325 328 326 318 321 318 314
314 316 316 319 320 320 320 319 321 322 323 325 318 322 317 314 311 311 319 320 322 323 321 324 330 337 336 335 334 334 335 335 336 337 337 336 332 330 332 330 329 327 312 312
311 312 315 320 319 319 319 319 321 320 320 321 319 321 314 312 319 320 319 321 323 323 327 323 331 335 337 335 335 335 335 335 336 337 336 334 332 333 333 331 328 324 314 312
311 312 317 318 317 317 318 321 318 316 316 319 320 321 314 320 321 320 320 320 324 324 335 333 332 335 337 336 334 332 335 336 335 335 334 334 331 333 327 327 327 328 323 311
309 312 312 317 315 315 319 320 320 314 316 322 318 320 315 316 318 320 319 322 327 328 336 336 336 335 336 332 329 330 336 333 333 334 333 327 332 331 325 324 326 328 325 316
311 311 313 314 314 315 320 319 324 319 320 320 319 322 322 319 319 322 321 322 325 330 330 335 336 335 335 335 335 333 330 331 334 332 333 330 325 321 325 328 328 323 322 313
311 312 311 313 312 317 318 319 317 318 319 317 320 321 319 320 321 322 322 320 323 326 328 331 332 333 333 335 336 337 334 334 333 329 330 325 323 325 328 324 322 319 314 310
311 311 310 311 314 315 319 315 321 319 323 322 318 316 319 317 320 318 323 319 321 324 326 328 330 333 333 335 334 333 333 332 332 332 330 328 326 322 318 316 315 313 311 310
310 309 309 309 312 312 310 311 320 318 322 324 319 317 313 313 314 314 317 317 319 321 324 327 329 329 329 334 333 329 328 327 328 324 322 319 317 316 314 313 312 311 311 310
310 307 309 309 309 309 310 311 316 317 316 321 321 316 310 309 311 313 313 318 319 322 324 326 327 328 328 327 325 324 324 323 322 320 316 315 313 312 312 312 311 311 311 310
309 307 307 307 308 308 310 310 310 317 313 317 314 315 311 310 310 312 312 312 316 319 318 316 320 322 323 322 321 320 319 318 315 313 312 311 311 311 311 311 310 309 308 307
310 308 306 306 307 309 310 310 310 311 308 307 311 311 309 311 311 311 311 311 311 311 311 312 312 313 314 314 315 314 314 313 312 312 311 310 309 308 307 306 305 304 303 302
305 307 307 308 308 309 309 310 310 310 310 309 310 312 311 309 311 311 311 311 310 309 309 310 310 310 311 311 310 310 310 309 309 308 307 307 306 305 304 303 303 301 300 299
301 300 307 308 310 310 311 310 311 308 308 310 311 312 309 310 311 311 311 311 310 309 309 309 309 309 309 309 309 308 307 306 306 306 305 304 304 303 302 300 299 298 298 298
302 302 307 308 308 310 313 310 310 309 310 309 311 310 309 309 309 310 311 310 310 309 309 308 308 308 307 307 306 306 305 304 304 303 303 302 301 300 299 299 298 297 297 297
301 305 306 308 309 316 312 309 309 310 311 310 310 309 309 308 309 310 311 311 310 309 308 308 307 306 306 305 305 304 303 303 303 302 301 300 299 299 299 298 298 297 297 296
301 303 306 308 310 310 313 308 309 309 309 309 309 308 307 309 308 309 311 311 310 310 309 308 307 306 305 305 304 303 303 302 301 300 299 299 299 299 298 297 296 296 296 296
301 303 307 307 311 314 313 309 308 307 306 308 309 307 306 307 307 305 311 311 310 309 308 307 306 305 304 303 303 302 302 300 300 299 299 299 298 296 296 296 296 297 296 295
306 305 304 307 307 309 308 310 308 307 307 309 310 309 308 305 308 309 310 310 309 308 307 306 305 304 303 302 301 301 300 299 299 298 298 296 295 296 297 297 297 296 296 295
308 307 306 306 308 312 310 308 308 307 309 310 311 310 310 310 309 308 309 309 308 307 305 304 304 303 303 301 301 300 299 298 298 297 296 296 296 297 297 296 296 295 295 293
308 309 309 308 309 310 311 310 311 311 310 310 310 310 310 308 307 308 308 308 307 306 305 304 304 303 301 300 299 298 297 297 296 295 296 296 296 296 296 295 295 293 292 291
306 307 308 309 309 308 311 311 311 311 310 310 310 310 310 309 307 307 307 306 306 305 304 303 302 301 300 298 297 297 296 296 295 295 295 296 295 295 294 292 291 290 289 289
305 304 304 305 305 309 311 312 312 310 309 309 310 310 310 309 307 306 306 306 305 304 303 302 302 300 299 298 297 296 296 295 295 294 294 294 293 292 292 289 288 288 288 288
303 302 303 305 305 306 309 310 311 309 310 310 310 309 309 309 308 306 306 305 304 303 302 302 300 300 299 298 297 296 295 294 293 293 293 292 291 289 288 287 287 288 288 289

GFSCGP_850_thetae_108.txt.gz
Theta_e
315 315 316 315 316 315 316 317 317 317 316 316 316 315 314 315 314 312 313 314 315 314 314 319 332 336 336 334 333 336 335 320 325 331 332 331 331 329 326 322 320 315 313 310
313 315 315 316 318 319 318 318 318 317 317 316 317 317 316 314 313 314 314 313 312 313 314 314 326 336 337 333 333 334 335 327 331 334 334 334 332 331 327 322 318 314 311 310
316 315 316 316 318 319 318 318 318 319 319 318 319 317 314 313 311 311 316 317 320 318 320 316 318 330 336 335 332 333 335 334 330 332 333 333 333 334 329 320 317 312 311 310
313 313 313 316 318 318 318 317 319 321 319 321 319 319 316 314 312 316 317 320 321 322 321 321 317 320 329 335 336 334 334 332 329 331 334 335 335 335 328 320 315 315 313 310
310 311 312 318 317 317 317 316 319 318 319 316 319 318 312 314 318 318 317 319 321 323 322 321 319 319 321 331 336 336 334 334 333 333 333 335 337 334 332 319 320 326 323 322
311 311 313 318 316 316 317 319 315 313 313 318 321 317 314 319 319 318 319 319 322 326 326 326 323 328 331 335 335 335 334 334 335 335 334 334 334 327 323 321 325 326 323 322
308 310 310 315 313 312 318 317 317 315 314 315 319 321 319 319 320 322 321 322 323 328 333 333 332 333 334 335 335 334 334 334 334 334 334 333 325 325 323 323 324 327 326 324
309 309 311 311 313 313 319 317 318 323 321 319 317 320 321 317 317 320 321 320 323 325 328 331 334 334 334 336 335 334 333 334 333 333 331 329 328 324 321 322 324 324 325 325
310 309 309 311 311 315 316 317 317 318 313 318 312 318 319 316 315 317 320 319 320 322 325 329 331 334 334 335 335 335 333 332 331 329 329 327 324 327 322 323 324 326 324 321
310 310 309 309 312 312 317 315 318 315 316 320 317 314 317 316 316 317 319 316 317 322 326 328 330 331 334 335 333 334 329 332 329 326 322 322 324 324 325 325 322 320 317 313
309 308 307 308 310 310 309 309 315 316 318 318 321 316 313 313 314 317 317 316 315 319 323 324 328 331 331 332 332 329 328 329 329 328 326 326 323 321 317 316 315 314 312 311
309 305 308 308 308 308 310 309 313 315 316 317 317 319 310 309 311 313 313 315 314 317 322 325 326 327 327 326 326 326 326 324 321 321 318 317 317 315 314 313 312 311 311 310
308 306 305 304 307 307 309 309 309 313 311 314 310 310 308 309 310 311 311 311 312 313 316 321 323 322 323 324 323 322 320 318 315 314 313 312 312 312 311 311 310 310 309 309
309 306 305 303 305 307 308 308 309 309 307 306 309 309 309 308 310 310 310 310 310 312 314 317 317 317 318 318 317 316 314 312 311 311 311 310 310 309 309 308 307 305 304 303
302 304 306 306 306 306 307 308 309 309 308 308 308 309 312 309 310 310 310 309 310 310 312 311 311 312 312 312 312 311 310 310 309 309 308 307 306 305 304 304 303 302 301 300
299 300 304 305 308 308 309 309 309 308 307 308 310 310 309 309 310 311 310 309 309 309 309 309 309 309 309 309 308 307 306 306 305 305 304 303 303 302 301 300 299 298 298 297
301 301 306 306 306 308 311 310 310 307 308 307 310 309 309 310 309 310 310 310 309 309 308 308 307 307 307 306 306 305 305 304 303 303 302 301 300 300 299 298 297 296 296 295
300 303 304 307 307 315 311 308 308 306 309 307 308 308 309 309 309 309 310 310 309 308 308 307 307 306 306 305 305 304 303 303 303 302 301 300 299 298 298 297 296 295 295 296
300 302 305 307 309 309 313 308 308 309 307 307 307 307 307 308 309 310 310 311 310 309 308 307 306 305 305 304 303 303 302 302 301 300 299 299 298 298 296 296 296 296 296 296
301 301 305 306 310 312 310 308 307 306 306 307 308 306 306 307 307 304 311 311 310 309 308 307 305 305 304 303 302 302 301 300 299 299 298 298 296 295 296 296 296 296 296 296
302 302 303 304 307 308 307 309 306 307 308 307 309 308 307 305 308 309 310 311 310 309 307 306 305 304 303 302 301 301 300 299 298 297 296 295 295 295 296 296 296 296 295 295
306 305 304 304 307 310 309 307 305 306 308 310 310 310 308 309 309 309 309 310 309 308 307 306 305 304 303 302 301 300 299 298 297 296 295 295 295 296 296 296 295 295 293 292
309 307 307 307 308 308 310 308 310 310 309 309 309 310 310 309 309 307 309 309 309 307 306 305 304 303 302 301 300 298 297 296 295 295 294 295 295 295 294 293 292 292 290 289
306 306 307 308 308 307 310 312 312 312 311 310 310 310 310 309 308 307 308 308 307 306 305 304 303 302 301 300 298 297 296 295 294 294 294 294 293 292 292 290 289 288 288 288
305 304 305 304 305 308 310 311 312 312 310 309 310 310 310 309 309 307 307 307 306 305 304 304 303 302 300 298 298 297 295 294 293 293 293 292 291 290 289 288 288 288 289 289
302 302 304 305 308 307 307 308 309 310 311 310 309 310 310 309 309 308 306 306 306 305 304 302 301 300 299 298 297 296 294 293 293 293 291 290 289 288 289 289 289 288 287 287

GFSCGP_850_thetae_111.txt.gz
Theta_e
315 316 317 317 316 317 317 318 320 319 318 318 319 319 318 317 316 315 315 315 313 314 314 313 327 336 337 338 338 338 337 329 318 328 329 332 330 328 323 324 323 321 312 308
314 314 315 315 317 319 319 319 319 318 318 318 319 319 317 315 314 312 313 315 315 315 313 313 315 332 336 337 337 335 332 331 319 318 326 332 331 330 326 325 325 325 317 310
315 314 315 315 317 318 317 318 318 319 319 318 318 318 317 316 315 315 317 317 320 320 318 315 319 318 332 336 336 335 333 332 330 330 324 331 332 333 331 327 325 326 321 312
313 311 312 314 317 317 318 316 318 320 319 320 318 320 316 318 319 317 319 319 319 321 320 317 318 317 319 328 336 335 332 334 334 330 332 332 332 332 332 331 327 324 319 314
310 310 311 317 316 316 317 317 319 318 319 318 318 318 317 318 318 315 317 320 321 322 323 319 318 319 315 325 327 336 332 333 334 333 330 328 330 333 333 332 326 322 319 316
311 309 311 317 315 315 317 318 315 314 315 320 318 319 318 320 317 317 319 319 321 324 326 324 322 321 320 325 333 335 333 333 334 331 329 330 329 332 327 324 317 316 321 319
308 309 309 313 312 312 319 319 323 322 321 321 317 319 318 316 316 317 321 319 320 325 328 332 330 328 329 331 333 334 333 332 333 332 331 333 329 323 321 321 321 322 323 320
311 311 310 310 312 313 319 318 321 322 322 321 316 321 319 315 315 317 320 318 318 321 325 328 331 333 332 333 333 333 332 332 332 332 332 329 325 321 320 320 320 321 325 323
311 311 308 310 310 314 315 319 317 317 315 320 318 318 317 315 314 316 319 317 316 317 320 324 329 329 332 332 332 331 330 332 331 323 324 324 321 320 321 322 323 322 323 323
309 311 308 309 313 311 315 315 320 317 320 321 319 317 315 315 315 317 318 316 314 316 320 323 326 328 331 330 330 329 331 331 323 321 323 322 321 322 324 323 323 323 322 323
308 308 308 307 309 310 311 311 314 318 319 322 321 320 313 313 316 316 315 314 312 317 319 323 324 327 329 330 325 328 329 327 324 326 322 322 322 323 324 321 320 317 315 313
307 306 309 308 307 306 309 310 312 317 316 319 320 318 311 311 313 313 311 311 312 317 321 325 326 326 326 327 327 328 327 326 326 323 322 321 319 316 314 314 313 312 311 310
307 307 307 304 306 305 308 309 309 311 312 316 316 313 308 310 311 310 310 310 311 313 317 319 322 323 322 320 319 319 319 319 317 316 316 315 313 312 312 311 310 309 309 309
309 306 306 305 304 306 308 307 308 310 311 309 311 311 310 310 311 310 309 309 310 311 313 313 315 315 315 314 314 314 312 311 311 311 311 310 310 310 309 309 308 307 306 305
302 304 305 306 306 306 306 306 307 310 308 311 309 309 311 311 310 310 309 309 310 310 310 311 312 312 312 312 311 310 310 310 310 310 309 307 306 305 304 303 303 302 301 301
299 301 303 305 307 306 309 309 309 309 308 307 307 310 309 309 310 309 309 309 309 309 310 310 310 310 310 309 309 307 306 306 306 306 305 304 303 303 302 301 300 299 298 297
302 302 307 307 306 308 311 310 309 307 306 307 309 310 309 309 309 310 310 309 309 309 309 308 308 308 307 306 306 305 304 304 303 303 302 301 300 300 299 298 296 295 295 295
301 303 305 308 308 312 310 308 308 308 306 307 307 307 309 310 310 310 310 310 309 308 308 307 307 306 305 305 304 304 303 302 302 301 300 299 298 297 296 295 295 295 295 295
300 302 306 309 310 309 311 308 308 308 308 308 308 308 307 308 308 310 310 310 310 309 308 307 306 305 305 304 303 302 302 301 300 299 299 298 297 295 294 295 295 295 295 295
300 301 305 308 312 313 309 308 307 306 310 306 308 307 307 307 310 308 311 310 310 309 308 307 305 305 304 303 303 302 302 301 299 298 297 295 294 294 295 295 295 295 295 295
302 302 304 306 310 310 308 308 305 310 313 306 309 308 307 308 309 308 310 310 310 309 308 306 305 305 304 303 302 301 300 299 297 296 295 294 294 295 295 295 295 295 295 293
306 306 305 304 308 311 307 307 307 308 308 308 309 309 308 309 309 308 308 310 310 309 307 306 305 304 302 302 301 300 299 297 296 295 294 294 294 294 294 294 293 292 291 290
310 308 309 308 309 308 309 308 309 308 311 310 309 310 310 309 309 308 308 309 309 308 307 305 305 303 302 301 300 299 297 296 295 294 294 293 293 293 292 291 289 288 288 288
305 305 308 308 309 307 310 311 311 311 311 312 310 309 309 309 309 308 307 309 308 307 306 305 303 303 302 301 299 297 296 295 294 293 293 293 292 291 289 289 289 289 290 289
306 304 306 306 306 307 309 311 312 312 311 311 310 309 310 309 309 308 307 308 308 307 305 304 304 303 302 300 298 297 296 294 293 293 292 291 290 289 289 289 289 288 287 287
302 304 307 309 309 310 308 309 308 308 309 309 310 309 309 309 309 309 307 307 307 306 304 303 303 302 301 299 298 297 295 293 293 292 290 289 289 289 289 288 287 287 287 287

GFSCGP_850_thetae_114.txt.gz
Theta_e
318 320 319 319 319 319 320 321 321 321 320 321 321 321 320 319 317 316 318 319 318 317 316 313 322 336 339 339 341 338 337 336 334 324 337 336 336 334 328 323 322 322 314 307
318 319 318 317 318 319 319 320 321 321 321 321 320 320 318 320 320 319 320 320 320 320 319 319 318 330 338 338 338 338 338 337 334 321 326 336 337 333 331 324 323 323 319 309
317 317 315 316 318 318 318 319 320 322 321 321 320 320 320 320 319 318 319 321 321 321 321 321 321 325 333 337 336 337 338 337 335 328 318 327 335 331 331 328 324 325 324 310
316 314 314 316 317 317 319 318 320 322 321 322 319 323 319 319 320 319 319 319 322 323 323 322 323 321 330 332 335 336 336 335 333 331 319 326 328 330 330 331 327 326 326 318
314 314 314 317 316 317 318 320 322 321 321 322 321 322 320 319 318 318 318 319 321 323 325 324 323 323 325 333 334 335 335 333 333 328 323 324 328 331 332 330 331 328 327 326
313 311 314 317 315 316 318 322 320 319 321 324 321 320 320 319 317 316 317 319 319 323 327 329 329 325 325 333 336 335 335 333 333 329 326 328 330 329 329 329 331 331 326 324
314 313 313 314 316 317 319 323 330 326 328 325 320 321 319 317 316 317 321 318 318 320 323 330 332 331 332 334 335 335 332 333 333 331 329 330 328 325 325 324 324 320 320 321
315 314 313 313 315 316 319 322 327 331 325 327 322 326 321 315 317 321 320 318 316 317 319 326 330 333 332 332 331 332 332 332 332 332 332 327 323 322 323 320 321 319 321 320
315 314 312 312 314 317 317 320 321 323 321 324 323 318 318 317 319 319 319 316 314 315 317 325 330 330 331 331 330 330 331 331 330 330 328 322 321 321 321 321 322 320 322 322
313 314 312 311 315 315 317 317 321 324 327 324 318 317 320 321 319 318 319 316 313 313 315 323 327 329 329 330 329 328 328 324 323 325 322 322 322 321 321 322 321 323 323 322
312 312 312 311 312 314 315 316 317 321 322 323 320 318 315 317 317 317 316 316 312 312 316 320 325 328 327 330 329 325 322 323 324 323 324 323 321 323 323 323 322 322 321 320
311 312 311 311 310 310 313 314 314 318 319 322 321 318 315 315 315 314 314 314 312 314 316 320 324 327 328 327 327 327 326 325 324 324 322 322 323 319 317 317 315 313 312 312
312 312 312 312 313 311 311 311 311 314 318 318 319 317 313 314 315 313 313 314 310 311 312 317 319 319 323 324 324 324 325 320 318 319 317 315 313 313 312 311 310 310 309 309
310 312 312 313 311 309 309 310 309 311 316 314 314 314 315 315 316 314 312 312 311 311 310 310 311 316 315 315 315 315 314 313 312 312 311 311 310 309 309 308 308 307 307 306
311 311 309 309 309 308 308 308 309 311 315 314 312 312 314 315 316 314 313 312 312 311 311 309 308 307 310 310 310 310 309 309 309 308 307 306 305 304 303 303 302 301 300 300
305 308 307 310 309 310 311 312 313 313 313 313 312 311 313 313 313 313 313 313 312 309 308 308 307 307 308 309 309 308 307 306 305 305 304 303 302 301 300 300 299 298 297 296
307 309 309 312 310 312 315 315 314 314 313 311 311 314 315 314 313 313 312 312 311 310 308 307 307 306 307 307 306 305 305 304 304 303 303 302 301 300 299 297 296 295 295 294
308 308 308 311 313 315 314 312 312 312 312 311 311 312 314 314 313 313 312 312 311 309 308 307 307 307 306 305 305 304 303 303 303 302 301 300 298 297 295 295 294 294 294 294
306 308 309 314 315 315 315 313 313 312 314 312 312 312 312 312 311 312 311 311 310 309 308 306 306 306 305 304 303 303 302 302 301 300 298 297 296 295 294 294 294 294 294 295
305 306 308 312 316 317 314 311 308 309 314 310 312 312 311 311 315 315 311 310 310 308 307 307 306 305 304 304 303 302 302 301 299 298 297 295 294 294 294 295 295 295 295 295
308 308 309 312 315 315 314 310 307 313 316 310 311 312 311 313 312 310 310 310 309 309 308 307 306 305 304 303 302 301 301 299 298 296 295 294 294 294 295 295 294 294 293 292
311 311 311 311 313 316 311 310 312 314 310 310 311 311 310 311 309 309 310 310 310 308 308 306 305 305 304 303 302 301 300 298 296 295 294 294 294 294 293 293 292 291 290 289
314 313 315 314 317 313 310 314 311 310 312 311 311 310 310 310 308 308 308 308 309 309 308 306 305 304 303 302 301 300 299 297 295 294 294 293 293 292 291 290 290 290 290 290
310 308 313 313 315 311 310 311 311 309 309 311 312 312 310 309 309 308 308 308 309 308 307 306 305 304 303 301 301 299 297 295 294 293 293 293 292 290 290 291 290 289 289 290
312 309 312 313 313 311 310 311 311 311 311 311 311 312 312 309 309 309 308 307 309 308 306 306 305 304 303 301 300 298 296 295 293 293 293 291 290 290 290 289 288 288 288 287
307 312 313 314 314 314 314 311 310 309 309 309 309 311 311 309 309 309 308 307 308 308 306 305 304 303 303 301 299 297 296 294 293 293 291 290 290 290 289 288 288 288 287 287

GFSCGP_850_thetae_117.txt.gz
Theta_e
320 322 321 320 319 320 320 321 322 323 322 322 322 322 320 320 320 320 321 322 321 320 319 318 317 332 338 337 334 329 338 337 335 334 332 334 335 335 334 328 325 319 316 311
320 321 318 318 319 319 319 321 322 322 322 322 321 322 321 321 321 320 320 320 322 322 321 320 318 322 332 339 338 336 338 336 336 335 332 333 334 334 332 328 326 319 317 312
318 319 316 317 319 318 320 320 320 322 322 322 321 322 321 320 320 319 319 320 320 322 322 321 321 322 328 337 337 338 339 338 337 336 333 332 335 334 333 329 327 323 322 315
317 316 316 317 318 318 320 320 323 324 323 323 321 325 322 321 321 320 319 320 322 322 323 323 322 323 326 333 335 334 337 338 338 337 334 325 332 335 335 332 329 323 324 321
317 315 316 317 316 317 319 320 323 323 324 324 322 323 322 320 320 319 319 320 319 320 324 327 323 323 323 330 334 337 331 335 337 336 333 327 331 332 332 331 330 330 325 324
315 314 315 317 316 318 319 321 324 324 324 326 321 323 322 321 319 318 321 319 318 319 321 328 326 324 324 330 335 334 327 324 335 336 333 324 323 325 327 331 331 330 327 326
316 316 315 315 318 319 320 324 332 328 328 324 322 323 324 321 319 321 321 317 317 317 321 327 328 327 328 334 334 333 334 329 334 325 328 330 329 328 329 328 327 327 327 324
316 317 314 314 317 317 321 322 327 330 325 326 323 325 324 320 320 321 320 316 316 316 321 329 330 331 331 331 330 331 333 333 332 331 330 329 329 324 324 324 323 321 319 320
316 317 314 313 316 317 319 320 321 325 326 328 324 320 323 321 321 319 319 316 315 315 318 326 329 329 329 330 330 329 330 330 330 330 326 326 323 322 321 321 321 319 320 320
315 315 314 312 315 317 317 318 323 325 332 326 320 317 318 320 320 320 320 316 313 315 317 323 325 327 327 328 329 329 327 326 325 323 322 322 322 322 321 322 321 321 322 322
313 314 315 314 315 316 318 318 318 322 322 325 322 320 317 318 319 319 319 314 313 315 317 319 323 325 326 326 326 327 326 325 322 322 321 322 320 322 322 322 321 321 322 321
313 315 315 314 313 314 315 315 316 318 319 321 322 321 317 317 318 318 316 315 313 313 315 318 323 324 323 322 324 324 323 323 322 323 323 321 321 322 321 319 317 315 316 317
314 316 317 315 316 314 313 312 312 313 319 321 319 318 317 317 318 318 318 314 313 312 313 315 322 322 323 323 324 324 324 324 323 322 321 317 315 314 313 312 311 310 309 310
312 316 316 318 316 313 313 313 312 311 317 317 316 312 317 317 319 319 318 315 313 311 313 313 311 310 314 318 317 316 316 317 316 314 313 312 310 309 309 308 307 307 306 306
313 317 315 314 312 312 312 311 311 311 314 316 315 313 313 316 318 319 318 317 316 313 312 312 311 309 308 310 310 310 309 310 309 309 309 307 306 305 304 304 303 303 302 301
310 313 311 314 314 312 314 314 314 314 316 316 316 314 313 316 316 317 318 317 316 315 312 311 310 310 308 307 307 308 307 307 306 305 304 304 302 301 301 300 299 299 298 297
312 312 315 317 314 314 317 317 316 315 316 316 313 316 316 316 315 316 318 317 315 313 312 311 310 309 307 306 305 304 304 303 303 302 302 301 301 300 299 299 298 298 298 298
312 312 313 315 317 320 317 314 316 316 315 314 313 314 315 316 315 315 315 317 315 313 312 310 309 307 306 305 304 304 303 303 302 302 301 301 300 298 298 298 298 298 298 298
309 312 313 316 318 318 317 315 314 315 316 315 314 314 314 315 315 314 314 314 314 312 311 309 308 306 305 305 304 303 303 302 302 301 300 299 298 298 298 298 297 297 297 297
309 309 312 315 318 320 317 314 312 312 316 315 314 314 314 314 315 315 314 313 313 311 310 308 307 306 305 304 303 303 302 302 301 299 297 296 295 295 295 295 295 294 295 294
311 311 313 315 318 318 317 312 310 315 318 312 313 314 313 314 314 315 313 313 312 311 309 308 306 305 305 303 303 303 302 302 300 297 296 295 294 294 294 294 293 293 292 292
314 315 315 315 316 319 315 311 314 316 313 313 313 313 313 313 312 312 313 312 311 310 308 307 306 305 304 303 303 303 302 300 298 296 295 294 294 294 293 293 292 292 293 292
316 317 317 317 319 317 314 316 313 314 315 313 313 313 313 312 312 311 312 312 311 310 308 306 306 305 304 303 303 303 302 299 297 295 294 294 294 293 292 291 292 292 291 290
314 314 316 316 316 315 314 313 313 312 313 314 314 313 313 312 312 311 310 310 310 309 308 306 306 304 304 303 302 302 301 298 296 295 295 294 293 292 291 292 291 290 291 290
315 313 314 315 315 314 314 313 313 313 313 313 313 313 313 313 312 312 310 309 309 308 307 306 305 304 303 303 302 301 300 297 295 296 295 293 292 291 291 290 289 289 289 289
313 314 315 316 316 315 316 315 313 312 313 313 313 312 312 312 312 312 311 309 308 307 307 305 305 304 303 303 302 301 299 297 295 295 294 293 291 291 290 290 290 290 289 289

GFSCGP_850_thetae_120.txt.gz
Theta_e
319 321 321 319 319 319 319 319 321 321 322 322 323 322 320 321 320 320 320 319 320 321 322 321 318 321 330 336 338 337 337 337 336 333 332 333 332 335 336 334 330 323 320 317
319 322 317 317 318 319 319 320 321 320 322 322 323 323 321 320 320 320 319 319 320 321 321 322 321 319 320 333 335 335 337 335 335 334 333 333 332 333 335 330 325 323 318 314
317 319 316 316 318 318 318 320 322 324 323 322 322 322 321 320 320 319 319 319 320 320 321 323 323 320 321 330 334 335 336 331 327 330 333 332 333 334 333 327 325 324 319 315
317 316 316 317 318 317 319 319 321 325 324 325 322 323 324 320 320 319 318 321 319 319 319 322 325 324 322 327 333 336 334 328 330 336 334 333 331 333 331 329 327 325 322 318
318 316 316 317 317 317 318 319 321 324 324 324 322 321 323 320 320 320 320 320 318 318 319 320 325 327 323 323 332 332 333 332 326 328 335 333 333 331 332 331 329 327 325 321
316 314 316 316 316 318 319 321 324 325 325 327 322 323 323 322 321 321 321 318 317 317 319 322 326 326 323 327 331 333 332 331 325 324 326 333 332 332 332 331 331 330 329 322
318 317 316 315 317 320 321 322 331 328 329 325 322 324 323 321 320 322 319 317 316 317 320 325 326 328 327 331 332 333 329 327 326 325 322 321 329 326 324 327 328 328 328 325
318 318 315 314 318 318 320 321 326 325 327 326 325 325 324 321 320 321 318 316 316 318 321 326 328 330 331 330 329 331 331 326 326 326 328 328 327 327 327 325 325 324 323 321
317 318 314 314 315 317 319 319 321 325 325 328 328 322 322 318 319 321 319 316 316 317 318 324 329 330 329 329 329 330 331 331 331 330 328 328 325 324 322 322 321 320 321 320
316 314 314 313 315 318 317 318 323 326 323 326 321 317 316 318 320 321 317 315 316 316 318 322 325 326 327 329 329 329 329 325 324 325 323 322 322 321 321 320 321 321 321 320
314 314 315 314 316 316 318 319 317 320 322 323 322 318 315 318 319 319 317 313 314 315 316 319 322 324 325 326 326 325 324 323 323 321 321 321 321 321 321 321 321 321 321 321
313 314 316 315 314 315 315 315 314 316 319 318 320 319 315 317 318 317 316 314 313 316 318 320 322 322 323 323 322 322 322 322 322 321 321 322 321 320 320 320 319 316 317 318
315 316 316 315 315 314 314 314 312 312 314 320 316 317 315 318 318 318 316 314 313 315 313 318 322 322 322 322 322 322 322 321 320 320 320 317 314 313 312 311 310 310 311 312
312 316 317 318 317 315 314 314 312 311 312 316 314 313 316 317 319 318 316 314 314 314 313 311 318 318 318 319 320 320 319 317 315 313 312 311 310 309 309 308 308 307 306 307
313 317 317 316 314 313 312 313 312 311 310 313 315 315 313 315 317 319 318 316 314 313 312 310 311 310 311 312 314 313 311 311 310 309 309 308 307 307 306 305 304 303 303 302
311 313 313 313 315 315 313 313 314 312 310 311 314 315 313 316 318 319 318 318 316 313 312 310 309 308 307 308 309 308 308 308 307 306 305 304 303 302 301 301 300 299 298 298
312 312 315 317 315 315 315 315 315 314 314 315 315 315 314 314 316 318 318 317 316 314 312 311 309 308 308 308 307 306 305 305 304 303 302 302 301 299 298 296 296 296 297 297
312 312 314 314 314 320 316 314 315 316 315 315 313 314 315 315 315 316 318 317 315 313 312 310 309 307 306 306 305 304 303 303 302 302 301 300 298 297 297 297 297 298 297 297
310 312 313 314 317 318 316 315 315 314 315 314 314 313 315 315 315 315 316 317 315 313 312 310 308 307 306 305 304 303 303 302 302 301 300 298 297 297 297 297 296 296 296 296
309 309 312 315 318 321 317 315 313 313 314 315 315 313 314 315 313 312 314 315 315 313 311 310 308 307 306 305 304 303 303 302 301 300 298 297 297 296 295 295 295 294 294 293
309 309 310 312 317 319 316 312 311 314 317 313 314 314 314 313 314 315 314 314 314 312 310 309 308 307 306 305 304 303 302 302 301 299 296 295 295 294 294 294 293 293 293 293
312 313 311 313 316 316 312 310 312 315 313 313 314 314 314 314 313 314 314 313 313 311 310 309 308 306 306 305 304 303 302 302 300 298 296 295 294 294 293 293 293 293 293 292
315 316 316 315 316 316 312 316 313 315 313 313 313 313 313 313 313 313 313 313 312 311 310 308 307 306 305 305 304 303 303 302 299 297 295 294 294 293 292 292 293 292 291 291
314 315 316 315 315 315 314 314 313 313 315 314 313 313 313 313 313 312 312 313 312 311 310 309 307 306 306 305 303 303 303 302 299 297 295 294 294 293 292 293 292 290 291 290
314 314 313 315 315 315 315 314 314 313 312 313 314 314 313 312 312 312 311 311 312 311 310 309 307 306 306 305 303 303 303 302 298 296 295 294 293 292 292 292 290 290 290 289
313 312 313 314 315 315 316 315 314 313 313 313 313 313 313 313 313 313 312 311 310 310 310 309 307 306 306 304 303 303 303 301 298 296 295 294 293 291 292 291 290 290 290 289

GFSCGP_850_thetae_123.txt.gz
Theta_e
321 316 316 315 316 316 315 316 316 318 320 320 321 319 319 318 319 318 318 318 318 318 319 320 322 320 320 325 336 336 335 336 332 336 334 332 331 332 334 336 334 330 325 322
313 316 315 315 315 316 316 317 317 320 321 320 319 320 319 318 318 319 318 318 320 319 318 319 322 323 317 324 334 334 334 333 335 332 334 333 332 332 334 334 333 326 324 321
314 316 316 316 315 316 316 318 318 322 322 320 320 320 320 318 319 319 319 320 320 318 318 318 320 323 322 322 327 333 332 332 331 331 328 333 332 331 333 331 326 325 323 318
315 315 315 315 316 315 316 317 318 320 322 321 318 319 320 318 318 317 319 320 318 317 317 318 319 323 323 324 327 330 327 331 332 330 328 328 331 330 333 330 326 324 320 316
313 314 314 315 315 315 316 316 317 319 322 321 319 317 320 317 319 317 319 318 317 317 317 318 318 322 326 324 327 330 330 330 328 328 328 331 330 330 332 328 327 325 320 316
313 314 314 314 314 315 316 319 322 322 321 323 318 319 318 320 318 318 319 317 316 318 320 320 321 323 325 325 330 329 328 331 327 327 325 327 329 330 328 329 330 325 324 320
315 314 315 315 315 316 314 316 313 318 317 320 321 319 319 319 319 319 319 317 317 318 322 322 324 325 326 327 331 330 329 330 324 325 324 324 321 324 325 328 328 328 327 328
314 315 314 312 316 316 315 318 313 310 318 318 321 319 321 318 320 319 317 316 317 319 323 322 326 326 329 330 329 330 328 327 325 324 323 321 320 323 324 325 327 326 325 324
314 315 312 312 313 314 316 315 318 318 321 319 320 320 320 317 318 316 315 317 316 318 319 322 328 329 330 327 331 326 326 326 325 323 323 322 321 323 326 325 324 322 321 321
313 311 312 313 313 317 316 316 318 318 313 319 318 315 314 318 318 317 314 315 316 318 320 322 325 327 328 328 329 329 329 327 326 325 325 324 323 322 321 321 321 320 321 320
312 310 313 312 313 315 316 316 315 314 317 318 319 315 313 317 317 316 314 314 315 316 318 320 322 324 325 326 327 326 324 323 323 322 322 321 321 320 321 321 321 321 322 320
311 310 313 313 313 313 313 313 310 312 315 314 314 316 316 315 315 317 315 314 316 318 318 319 321 323 323 323 323 323 322 321 321 320 321 321 321 321 321 320 320 320 319 317
312 312 312 311 313 312 312 313 310 309 309 315 311 312 313 315 314 317 316 314 314 318 320 320 321 322 322 322 322 321 321 320 320 320 320 319 317 315 313 312 312 312 314 314
312 311 313 314 314 313 312 311 309 308 307 312 310 313 314 316 315 314 316 314 313 314 318 320 320 319 320 321 321 321 320 319 317 315 313 310 310 309 308 308 308 308 308 308
310 313 314 313 313 311 311 311 311 308 307 309 311 313 312 315 315 315 316 314 314 312 314 315 315 314 313 315 315 314 313 311 311 310 308 307 307 307 306 306 305 305 305 304
308 310 312 312 312 311 311 311 311 309 309 307 307 310 310 315 317 316 316 314 313 311 310 312 312 311 312 311 310 309 309 309 309 309 307 305 304 302 301 301 300 300 299 299
308 309 311 312 312 313 313 312 312 312 310 308 310 311 312 316 317 316 317 316 314 311 310 310 310 310 310 309 309 308 306 305 304 303 302 301 301 299 297 296 296 296 296 296
309 309 310 310 312 317 314 313 313 312 312 311 312 312 313 315 317 318 317 317 315 313 311 310 310 310 308 307 306 306 304 303 303 302 301 299 297 296 296 296 296 296 296 296
307 309 310 310 313 314 314 313 312 313 313 312 311 312 314 314 314 316 318 317 316 315 313 312 311 310 307 306 305 304 303 303 302 301 299 298 297 297 297 297 296 296 296 295
307 306 308 309 312 316 315 313 313 311 311 312 312 311 313 313 311 309 318 317 316 315 313 311 310 309 307 305 304 304 303 302 302 300 298 297 296 296 295 295 294 294 294 293
306 306 307 308 311 314 314 311 312 312 312 313 313 312 314 312 314 313 315 317 317 315 314 312 310 309 307 305 304 303 303 302 302 300 297 296 295 295 294 294 293 293 293 293
307 306 306 308 311 313 311 309 310 311 313 312 313 313 314 314 314 314 314 315 316 315 313 312 310 308 307 306 304 303 303 302 302 299 297 295 295 294 294 293 293 293 293 291
311 310 309 309 311 311 311 312 312 315 313 312 313 313 313 314 313 313 314 314 314 314 313 311 310 308 307 306 305 304 303 303 302 300 297 295 294 294 293 292 293 293 291 291
310 310 312 311 311 311 311 314 313 314 313 313 313 313 313 313 313 313 314 313 313 313 312 311 309 308 307 306 305 304 303 303 302 300 298 295 294 294 293 292 293 292 291 291
309 310 310 310 312 313 312 313 314 314 314 313 312 312 312 313 313 313 313 313 313 312 312 311 310 309 307 306 305 304 304 303 302 300 297 295 294 293 292 292 292 290 290 290
309 308 312 312 312 314 314 315 314 313 313 314 314 313 313 313 312 312 312 311 312 312 312 311 310 309 308 306 305 304 304 303 303 300 298 295 294 293 292 292 291 291 290 290

GFSCGP_850_thetae_126.txt.gz
Theta_e
319 317 315 313 313 314 315 315 315 317 318 320 319 319 318 318 318 318 318 319 319 319 319 318 318 322 318 325 325 330 331 332 334 334 334 333 332 333 332 334 335 331 327 326
312 315 314 313 314 315 315 317 316 317 319 320 318 320 319 318 318 318 319 320 320 319 317 317 318 321 322 326 330 329 330 331 333 333 333 333 333 333 333 335 328 327 329 324
312 315 314 315 314 315 314 316 317 318 320 318 318 319 319 317 318 318 318 319 317 317 317 317 318 319 325 326 328 329 330 331 330 331 332 333 332 332 332 334 334 333 323 323
314 314 314 314 314 314 315 315 316 317 320 321 316 318 318 317 316 316 318 318 317 317 318 318 318 320 324 327 325 324 329 329 330 330 331 332 331 325 329 328 325 325 326 321
312 313 313 313 315 314 314 315 315 317 320 320 317 317 314 316 318 316 319 318 317 318 320 320 318 320 325 323 327 329 329 330 331 332 331 329 327 324 326 328 328 328 326 318
312 313 312 313 313 313 315 317 314 319 318 322 318 318 315 318 317 318 319 317 318 319 319 323 319 321 324 325 328 330 330 331 330 328 327 328 329 327 326 329 329 322 322 317
314 313 314 314 314 313 314 312 311 314 316 320 319 317 317 317 318 319 318 317 318 319 320 323 325 325 326 329 330 330 329 329 326 326 326 330 329 328 329 328 326 325 326 325
313 313 313 311 314 314 315 314 310 306 314 314 318 318 317 318 318 316 317 317 318 321 321 324 327 328 329 330 330 330 331 330 325 325 325 322 326 326 325 323 321 322 326 324
313 315 312 310 313 313 315 315 315 314 316 316 317 318 317 317 318 315 317 317 318 319 322 325 328 328 329 328 328 329 328 327 325 323 322 322 321 324 324 325 326 324 324 323
312 313 311 312 313 315 314 315 317 314 314 318 316 314 313 317 317 316 317 316 317 320 320 323 326 327 327 328 327 326 326 326 325 324 323 321 321 322 323 323 324 322 321 321
310 309 312 311 312 316 315 315 314 313 315 316 318 315 309 316 317 315 315 317 317 320 321 323 324 325 326 327 326 325 325 324 323 323 323 323 322 322 322 322 321 321 321 321
310 308 311 312 312 312 311 311 309 311 315 311 312 314 316 314 315 315 314 315 318 319 320 322 323 323 324 323 323 323 322 322 321 320 320 320 320 320 321 321 320 320 320 319
309 310 311 311 312 312 311 311 308 307 307 312 312 310 313 313 314 315 314 316 319 320 320 321 321 323 323 322 322 321 320 319 321 320 320 320 320 319 317 316 316 317 317 317
311 310 310 312 314 311 311 311 308 307 307 309 311 310 315 314 314 313 314 315 317 319 321 321 321 321 322 321 321 321 321 320 319 318 316 314 312 311 310 310 310 311 312 312
308 310 311 312 312 314 312 311 308 307 306 309 310 311 311 314 314 314 314 314 313 318 319 321 322 321 321 321 321 321 318 316 313 311 310 309 309 308 308 308 307 306 306 306
307 310 311 311 311 309 310 309 309 308 307 306 306 307 306 312 316 315 314 313 312 314 318 318 319 319 319 319 317 314 312 310 309 309 309 308 306 304 303 303 302 302 302 302
307 307 309 311 311 312 312 310 310 309 308 308 307 307 312 314 315 315 315 314 313 312 316 318 318 317 317 314 312 311 310 309 308 306 304 302 301 301 300 299 298 297 297 296
305 307 309 310 312 314 312 312 310 310 310 307 308 309 314 315 317 317 317 316 315 313 313 314 314 314 313 312 310 309 307 305 304 303 302 301 299 297 296 296 296 295 295 295
306 307 308 310 312 312 314 312 311 312 312 310 310 311 314 316 316 316 317 317 317 317 315 314 313 312 310 310 308 307 305 304 303 302 300 298 296 296 296 296 295 295 295 294
305 306 309 308 312 314 313 312 312 310 310 309 311 311 311 312 312 312 317 317 317 317 316 313 312 310 309 307 306 304 304 303 302 301 299 297 296 296 295 295 295 294 294 294
306 305 308 308 310 311 311 311 311 311 311 310 312 312 312 311 313 313 314 317 317 316 316 313 311 310 309 306 304 304 303 303 302 301 299 297 296 295 295 294 294 293 293 293
308 306 306 306 310 313 311 309 311 310 312 313 313 313 314 314 314 313 313 316 317 316 314 313 311 310 308 306 304 304 303 302 302 301 298 296 295 295 294 294 293 293 293 293
310 307 307 308 310 310 311 311 313 314 314 313 314 314 314 314 314 314 313 314 316 316 315 314 312 310 308 306 305 304 303 302 302 301 298 296 295 294 294 293 293 293 292 291
306 307 308 308 309 309 312 313 313 314 315 314 313 313 313 313 313 313 312 313 315 316 315 314 312 310 309 307 305 304 303 303 302 301 298 296 295 294 293 292 293 292 291 291
308 308 308 307 310 311 312 313 315 313 314 313 313 313 313 313 313 313 312 313 314 314 314 314 313 311 309 308 306 304 304 303 302 302 299 297 295 294 293 292 292 291 290 290
306 307 311 311 313 313 314 316 314 314 314 314 313 312 313 312 312 312 312 312 313 313 313 313 312 311 310 308 307 305 304 303 303 302 300 297 295 294 293 292 292 291 290 290

GFSCGP_850_thetae_129.txt.gz
Theta_e
318 317 314 313 312 312 314 314 314 314 316 320 318 317 317 318 317 317 317 319 318 317 316 317 317 319 324 328 323 326 329 331 332 332 329 330 332 331 329 333 333 334 330 327
312 316 315 313 312 313 314 315 315 315 317 320 318 318 318 317 317 317 318 319 318 317 316 318 317 319 326 327 323 326 327 331 331 332 332 332 333 331 331 333 334 334 331 327
311 314 313 312 313 314 313 314 315 316 317 317 318 316 318 316 317 316 318 318 317 317 318 319 318 320 326 328 327 329 328 330 331 331 332 332 333 332 332 333 333 329 329 327
312 313 313 313 313 312 314 313 315 316 317 319 315 319 315 316 315 314 318 318 317 318 318 318 318 320 325 326 328 327 328 328 330 331 332 332 332 333 332 331 331 328 324 324
312 313 313 312 312 312 313 314 315 315 317 319 318 316 313 314 317 316 317 318 318 318 319 320 318 320 325 326 326 328 329 330 330 331 332 332 332 331 326 326 326 327 329 325
312 312 311 310 312 312 314 317 314 316 317 321 318 317 315 317 316 317 319 318 318 318 319 323 321 324 323 326 327 329 330 331 331 331 331 331 331 330 325 327 326 325 318 319
313 312 313 312 313 313 313 313 312 317 313 318 317 316 315 316 318 317 318 318 318 318 319 323 323 324 326 329 329 330 330 329 327 326 326 328 328 326 325 325 324 326 327 327
312 313 312 311 312 311 314 313 308 304 309 311 316 315 315 318 317 318 318 318 319 320 319 321 324 325 326 326 327 327 328 326 324 326 328 329 328 328 327 326 326 324 324 325
312 313 311 309 313 312 314 315 313 313 312 313 315 315 316 318 317 316 317 317 318 319 320 324 325 324 325 327 326 325 325 326 325 324 323 323 324 326 325 324 323 322 323 324
311 312 311 311 312 314 313 313 316 311 313 315 313 313 313 312 316 316 317 317 317 322 323 324 325 325 325 326 325 325 325 324 323 323 323 322 324 325 323 324 324 325 323 324
308 308 311 310 311 313 314 315 311 312 313 314 314 312 308 312 315 316 316 317 317 319 322 323 324 325 326 326 326 325 325 323 323 323 322 321 322 322 322 323 322 321 321 319
308 306 310 310 310 310 312 312 309 310 312 310 310 313 313 313 315 317 316 316 317 319 320 321 322 323 323 324 324 323 323 323 323 322 322 322 322 321 321 320 320 320 320 319
308 308 311 311 310 311 311 309 308 306 306 310 313 310 311 312 314 316 316 317 316 319 321 322 321 322 322 322 322 322 321 321 321 320 320 321 320 321 321 320 319 319 319 318
311 308 310 312 312 309 309 310 306 306 306 307 311 311 314 313 313 314 315 317 317 318 320 321 322 322 322 321 320 320 320 320 320 320 320 318 315 313 313 314 315 316 315 315
308 310 309 310 311 313 312 310 307 306 306 309 308 308 308 313 313 314 317 317 318 317 318 321 320 321 321 321 320 320 320 318 316 313 312 311 310 309 309 309 309 310 310 311
306 310 310 310 310 310 311 309 309 306 306 306 306 307 307 312 314 314 316 316 317 319 320 320 321 321 319 319 320 319 316 313 311 310 309 309 309 307 305 305 304 305 304 304
307 306 308 310 310 311 311 309 309 308 306 307 307 308 307 311 313 313 315 316 318 320 320 320 321 321 320 320 318 314 312 310 308 309 307 305 304 303 302 301 300 300 300 300
305 306 307 308 311 313 311 310 309 310 309 306 307 306 309 311 313 315 317 318 318 320 320 320 320 318 318 316 313 311 309 309 308 305 304 302 301 299 298 297 296 296 295 295
304 307 307 309 309 310 312 311 310 310 311 308 308 307 309 313 314 315 316 317 318 319 320 320 320 318 316 313 311 310 308 306 304 303 302 300 297 296 296 296 295 295 295 294
304 305 308 307 312 314 312 311 311 309 310 308 309 308 311 315 313 312 316 316 317 318 318 319 318 317 314 312 310 309 307 305 303 302 300 298 296 296 296 295 295 295 294 294
305 305 307 309 310 310 310 310 310 312 313 309 310 310 311 313 314 313 314 316 316 316 317 317 315 315 314 312 311 308 306 304 303 302 299 297 296 296 295 295 294 294 294 294
307 307 307 307 310 314 310 309 310 311 311 312 311 312 313 314 314 313 313 315 316 316 316 316 315 314 313 311 310 307 305 304 303 302 300 298 296 295 295 294 294 293 293 293
309 306 307 309 310 310 310 311 313 313 315 313 313 313 314 314 313 313 313 313 315 316 316 316 315 314 312 310 309 307 305 304 303 302 301 298 296 295 295 294 293 293 293 293
304 304 307 308 308 307 311 312 313 313 315 315 315 314 314 314 314 314 313 313 314 316 316 315 314 313 311 309 308 307 305 304 303 302 301 299 297 295 294 294 293 293 293 292
305 305 305 305 307 309 310 313 314 313 314 314 314 313 313 314 314 314 313 312 312 314 316 315 315 313 312 311 308 307 305 304 303 302 301 300 297 295 294 293 293 293 292 291
304 304 309 308 311 312 313 314 314 314 314 314 313 313 313 313 313 313 313 313 311 312 315 315 315 314 312 311 309 307 305 304 303 302 301 300 298 296 294 293 292 292 291 290

GFSCGP_850_thetae_132.txt.gz
Theta_e
317 316 316 314 311 311 312 313 312 312 313 319 319 316 315 317 317 316 317 318 317 317 317 318 318 317 321 323 322 329 330 329 330 329 327 327 328 330 331 325 328 332 332 330
311 314 314 313 311 313 312 313 313 312 315 318 317 317 316 317 317 316 318 318 317 317 319 318 318 318 323 327 323 324 326 327 330 330 329 327 327 331 326 326 327 331 332 330
311 312 313 313 312 313 312 313 313 314 314 316 314 315 316 316 316 315 318 317 317 319 318 318 318 319 327 324 326 328 330 328 329 331 331 330 327 329 331 326 329 331 332 330
310 311 312 312 312 311 313 311 313 315 315 317 314 320 314 316 313 314 316 317 318 318 318 318 319 320 326 325 327 328 328 330 330 331 331 331 331 331 332 331 332 331 332 330
313 311 312 312 311 311 310 313 315 314 315 318 317 316 313 313 315 314 316 318 317 319 319 322 319 321 325 326 327 327 329 330 329 330 331 332 331 332 331 331 321 324 330 328
311 311 310 310 311 311 313 316 313 313 316 320 318 316 315 315 316 316 317 318 317 320 321 324 323 323 323 324 324 326 328 328 330 332 332 331 332 331 329 325 325 327 328 327
312 311 311 311 312 312 312 314 312 312 314 317 315 316 315 314 317 315 318 318 318 321 321 323 323 324 325 325 325 327 328 328 327 328 330 330 330 330 327 326 327 328 327 326
312 313 311 311 309 310 314 311 309 304 307 308 313 317 314 316 316 316 317 318 318 321 322 323 322 323 325 326 326 327 326 325 325 326 327 328 327 327 325 327 327 326 324 325
310 312 310 309 313 312 314 315 311 310 311 311 313 315 311 317 316 315 317 316 317 319 322 324 324 323 323 323 323 324 325 325 324 324 323 325 326 327 326 325 323 322 322 322
310 312 310 310 313 312 312 311 316 310 312 313 310 313 312 311 312 315 317 316 316 317 321 323 324 324 324 324 326 324 324 323 323 323 322 322 324 323 323 323 322 322 323 323
307 308 310 309 310 312 315 315 310 312 311 313 312 309 307 310 314 315 316 316 316 317 319 323 324 325 324 324 324 323 324 322 323 322 320 322 323 323 323 323 323 323 322 321
307 306 307 309 309 309 311 312 310 309 311 310 309 311 311 310 313 316 316 316 317 318 319 321 323 323 324 324 323 322 322 322 321 321 322 321 322 322 322 322 322 320 320 319
307 307 309 311 310 309 310 308 307 305 306 310 312 310 310 312 313 316 316 317 317 318 319 320 322 322 322 322 321 320 320 320 321 320 321 321 320 321 322 321 320 320 320 319
310 306 309 312 311 308 309 308 306 306 306 305 310 311 310 312 313 314 316 317 317 318 319 320 321 322 321 320 319 319 320 320 319 320 320 320 320 320 320 320 318 318 317 316
308 310 308 309 311 310 309 308 306 306 305 308 308 309 308 311 312 314 318 317 318 318 319 319 320 321 320 320 319 320 319 319 318 318 315 312 311 311 312 312 312 312 313 313
306 310 309 311 309 310 312 311 307 306 305 305 306 306 305 308 313 314 316 317 318 317 317 318 318 318 319 318 319 319 317 313 311 310 310 309 309 307 307 306 306 306 308 308
307 307 307 310 310 308 311 309 310 308 305 307 307 308 304 310 311 314 315 317 319 319 319 319 319 318 317 317 319 316 312 310 309 309 308 306 304 303 302 301 301 301 301 302
305 306 306 307 310 313 310 308 308 310 309 305 306 305 306 308 312 314 315 316 318 320 320 320 321 321 319 319 317 313 310 309 308 307 304 303 301 299 298 297 297 296 296 296
303 306 306 309 308 309 311 309 309 308 311 307 308 305 306 311 311 312 313 315 315 319 321 320 321 320 319 318 314 311 310 308 307 304 303 301 298 297 296 296 295 295 295 295
304 303 308 305 311 314 311 310 309 309 312 308 308 305 309 312 310 308 312 315 316 318 320 320 319 319 317 316 313 311 310 308 306 303 302 299 297 296 296 295 295 295 294 294
306 306 307 308 309 309 309 309 309 312 313 308 308 307 311 311 310 313 313 315 315 316 319 319 319 319 318 315 312 311 309 307 305 303 302 299 297 296 295 295 295 294 294 294
307 307 307 307 310 313 309 308 310 311 310 311 310 310 311 312 313 312 313 314 315 315 317 317 318 318 317 314 312 311 309 306 304 302 301 299 297 296 295 295 295 294 294 293
309 307 307 308 309 309 310 311 312 313 313 312 313 312 312 313 314 314 313 314 314 314 315 316 317 317 315 314 313 312 309 306 304 302 301 300 298 296 296 295 294 294 293 293
304 303 306 308 308 306 311 312 313 312 314 314 314 314 313 314 314 314 313 313 314 314 315 315 316 316 315 314 313 312 309 306 304 303 302 301 299 297 296 295 294 293 293 293
305 304 304 305 305 309 309 312 314 313 313 314 314 314 314 314 314 314 313 313 313 314 314 315 314 315 315 315 313 312 309 306 304 303 302 302 300 298 296 295 294 293 293 293
302 304 309 308 308 311 312 315 313 314 314 314 314 314 314 314 314 314 313 313 312 312 314 315 315 314 314 314 313 312 310 307 305 304 303 302 301 300 297 295 294 293 293 292